Torna al catalogo

COSMOS 2301

AttivoMilitarePO
NORAD 23443·PAYLOAD·🇷🇺 Russia

Lanciato Dec 26, 1994 da Plesetsk Cosmodrome

Loading…

Prossimi Passaggi (prossime 24 ore)

TLE

AggiornatoSource: Space-Track

Epoca: Sep 14, 2026, 23:36 UTC

1 23443U 94086C   26257.98358507  .00000005  00000-0 -30560-4 0  9994
2 23443  82.5665 263.4601 0001190 354.1654  33.1881 12.62228944461231

Traccia COSMOS 2301 in tempo reale con AllMySat

Download on the App Store